Stuttgart, AR

10:14 PM CDT on April 22, 2018 (GMT -0500)
Stuttgart Municipal

Weather History for KSGT - January, 2014

Change the Weather History Date:

Wednesday, January 15, 2014

  Actual Average Record
Temperature  
Mean Temperature 35 °F -  
Max Temperature 42 °F 47 °F 66 °F (2016)
Min Temperature 28 °F 33 °F 21 °F (2009)
Degree Days  
Heating Degree Days 30    
Moisture  
Dew Point 17 °F    
Average Humidity 48    
Maximum Humidity 75    
Minimum Humidity 26    
Precipitation  
Precipitation 0.00 in - - ()
Sea Level Pressure  
Sea Level Pressure 30.20 in    
Wind  
Wind Speed 10 mph (NW)    
Max Wind Speed 21 mph    
Max Gust Speed 28 mph    
Visibility 10 miles    
Events      
Averages and records for this station are not official NWS values.
T = Trace of Precipitation, MM = Missing Value Source: NWS Daily Summary

Daily Weather History Graph

Daily Weather History Graph

Search for Another Location

Airport or City:

Astronomy

Jan. 15, 2014 Rise Set
Actual Time 7:12 AM CST 5:18 PM CST
Civil Twilight 6:45 AM CST 5:46 PM CST
Nautical Twilight 6:14 AM CST 6:17 PM CST
Astronomical Twilight 5:44 AM CST 6:47 PM CST
Moon 5:14 PM CST (1/15) 6:31 AM CST (1/15)
Length of Visible Light 11h 00m
Length of Day
10h 06m
Full, 100% of the Moon is Illuminated
Jan 15
Full
Jan 15
Full
Jan 23
Last Quarter
Jan 30
New
Feb 6
First Quarter

Hourly Weather History & Observations

Time (CST) Temp. Windchill Dew Point Humidity Pressure Visibility Wind Dir Wind Speed Gust Speed Precip Events Conditions
12:15 AM 41.0 °F 33.9 °F 24.8 °F 53% 30.17 in 10.0 mi NW 12.7 mph - N/A   Clear
12:35 AM 41.0 °F 34.3 °F 24.8 °F 53% 30.18 in 10.0 mi NW 11.5 mph - N/A   Clear
12:55 AM 39.2 °F 32.5 °F 23.0 °F 52% 30.18 in 10.0 mi NW 10.4 mph - N/A   Clear
1:15 AM 37.4 °F 31.4 °F 24.8 °F 60% 30.19 in 10.0 mi NW 8.1 mph - N/A   Clear
1:35 AM 35.6 °F 29.2 °F 23.0 °F 60% 30.19 in 10.0 mi NW 8.1 mph - N/A   Clear
1:55 AM 35.6 °F 28.6 °F 23.0 °F 60% 30.19 in 10.0 mi NW 9.2 mph - N/A   Clear
2:15 AM 35.6 °F 28.6 °F 23.0 °F 60% 30.20 in 10.0 mi NW 9.2 mph - N/A   Clear
2:35 AM 33.8 °F 27.7 °F 21.2 °F 60% 30.21 in 10.0 mi WNW 6.9 mph - N/A   Clear
2:55 AM 33.8 °F 25.8 °F 21.2 °F 60% 30.20 in 10.0 mi NW 10.4 mph - N/A   Clear
3:15 AM 35.6 °F 28.0 °F 19.4 °F 52% 30.20 in 10.0 mi NW 10.4 mph - N/A   Clear
3:35 AM 33.8 °F 25.8 °F 19.4 °F 56% 30.20 in 10.0 mi NW 10.4 mph - N/A   Clear
3:55 AM 35.6 °F 28.0 °F 19.4 °F 52% 30.20 in 10.0 mi NW 10.4 mph - N/A   Clear
4:15 AM 33.8 °F 26.4 °F 19.4 °F 56% 30.20 in 10.0 mi WNW 9.2 mph - N/A   Clear
4:35 AM 32.0 °F 25.6 °F 19.4 °F 60% 30.20 in 10.0 mi WNW 6.9 mph - N/A   Clear
4:55 AM 32.0 °F 25.6 °F 19.4 °F 60% 30.20 in 10.0 mi West 6.9 mph - N/A   Clear
5:15 AM 30.2 °F 22.6 °F 21.2 °F 69% 30.19 in 10.0 mi West 8.1 mph - N/A   Clear
5:35 AM 30.2 °F 24.3 °F 21.2 °F 69% 30.20 in 10.0 mi West 5.8 mph - N/A   Clear
5:55 AM 30.2 °F 23.4 °F 21.2 °F 69% 30.20 in 10.0 mi West 6.9 mph - N/A   Clear
6:15 AM 28.4 °F 21.2 °F 21.2 °F 74% 30.20 in 10.0 mi WNW 6.9 mph - N/A   Clear
6:35 AM 30.2 °F 23.4 °F 21.2 °F 69% 30.20 in 10.0 mi WNW 6.9 mph - N/A   Clear
6:55 AM 28.4 °F 21.2 °F 19.4 °F 69% 30.21 in 10.0 mi WNW 6.9 mph - N/A   Clear
7:15 AM 32.0 °F 24.2 °F 19.4 °F 60% 30.22 in 10.0 mi NW 9.2 mph - N/A   Clear
7:35 AM 32.0 °F 22.5 °F 21.2 °F 64% 30.23 in 10.0 mi North 12.7 mph - N/A   Clear
7:55 AM 33.8 °F 24.8 °F 19.4 °F 56% 30.24 in 10.0 mi North 12.7 mph - N/A   Clear
8:15 AM 33.8 °F 25.8 °F 19.4 °F 56% 30.26 in 10.0 mi NNW 10.4 mph - N/A   Clear
8:35 AM 35.6 °F 28.6 °F 17.6 °F 48% 30.26 in 10.0 mi NNW 9.2 mph - N/A   Clear
8:55 AM 35.6 °F 27.1 °F 17.6 °F 48% 30.27 in 10.0 mi NNW 12.7 mph - N/A   Clear
9:15 AM 35.6 °F 26.6 °F 17.6 °F 48% 30.28 in 10.0 mi NNW 13.8 mph - N/A   Clear
9:35 AM 37.4 °F 27.8 °F 15.8 °F 41% 30.28 in 10.0 mi NNW 17.3 mph - N/A   Clear
9:55 AM 37.4 °F 28.5 °F 15.8 °F 41% 30.28 in 10.0 mi NNW 15.0 mph - N/A   Clear
10:15 AM 37.4 °F 27.5 °F 15.8 °F 41% 30.27 in 10.0 mi NNW 18.4 mph 25.3 mph N/A   Clear
10:35 AM 37.4 °F 27.8 °F 15.8 °F 41% 30.27 in 10.0 mi NW 17.3 mph - N/A   Clear
10:55 AM 39.2 °F 29.8 °F 15.8 °F 39% 30.27 in 10.0 mi NW 18.4 mph 26.5 mph N/A   Clear
11:15 AM 39.2 °F 29.8 °F 14.0 °F 36% 30.26 in 10.0 mi NW 18.4 mph 27.6 mph N/A   Clear
11:35 AM 39.2 °F 29.8 °F 14.0 °F 36% 30.25 in 10.0 mi NW 18.4 mph 25.3 mph N/A   Clear
11:55 AM 39.2 °F 30.8 °F 15.8 °F 39% 30.24 in 10.0 mi NW 15.0 mph 19.6 mph N/A   Clear
12:15 PM 39.2 °F 30.8 °F 12.2 °F 33% 30.24 in 10.0 mi NW 15.0 mph - N/A   Clear
12:35 PM 41.0 °F 32.2 °F 12.2 °F 31% 30.22 in 10.0 mi WNW 18.4 mph - N/A   Clear
12:55 PM 41.0 °F 33.1 °F 12.2 °F 31% 30.22 in 10.0 mi NNW 15.0 mph 19.6 mph N/A   Clear
1:15 PM 41.0 °F 31.6 °F 12.2 °F 31% 30.21 in 10.0 mi NW 20.7 mph 24.2 mph N/A   Clear
1:35 PM 42.8 °F 35.8 °F 12.2 °F 29% 30.21 in 10.0 mi NW 13.8 mph 23.0 mph N/A   Clear
1:55 PM 42.8 °F 34.8 °F 10.4 °F 27% 30.20 in 10.0 mi NW 17.3 mph 23.0 mph N/A   Clear
2:15 PM 42.8 °F 34.5 °F 10.4 °F 27% 30.20 in 10.0 mi NW 18.4 mph 23.0 mph N/A   Clear
2:35 PM 42.8 °F 35.1 °F 10.4 °F 27% 30.20 in 10.0 mi NNW 16.1 mph - N/A   Clear
2:55 PM 42.8 °F 35.8 °F 10.4 °F 27% 30.20 in 10.0 mi WNW 13.8 mph 19.6 mph N/A   Clear
3:15 PM 42.8 °F 38.0 °F 10.4 °F 27% 30.20 in 10.0 mi NW 8.1 mph - N/A   Clear
3:35 PM 42.8 °F 37.5 °F 10.4 °F 27% 30.20 in 10.0 mi WNW 9.2 mph - N/A   Clear
3:55 PM 42.8 °F 38.6 °F 10.4 °F 27% 30.20 in 10.0 mi WNW 6.9 mph - N/A   Clear
4:15 PM 41.0 °F 35.2 °F 10.4 °F 29% 30.19 in 10.0 mi NW 9.2 mph - N/A   Clear
4:35 PM 41.0 °F 35.8 °F 8.6 °F 26% 30.20 in 10.0 mi NNW 8.1 mph - N/A   Clear
4:55 PM 39.2 °F 37.0 °F 10.4 °F 31% 30.21 in 10.0 mi NW 3.5 mph - N/A   Clear
5:15 PM 37.4 °F 33.8 °F 12.2 °F 36% 30.20 in 10.0 mi NNW 4.6 mph - N/A   Clear
5:35 PM 37.4 °F - 12.2 °F 36% 30.20 in 10.0 mi Calm Calm - N/A   Clear
5:55 PM 37.4 °F - 15.8 °F 41% 30.20 in 10.0 mi Calm Calm - N/A   Clear
6:15 PM 37.4 °F - 12.2 °F 36% 30.20 in 10.0 mi Calm Calm - N/A   Clear
6:35 PM 37.4 °F 34.9 °F 14.0 °F 38% 30.19 in 10.0 mi North 3.5 mph - N/A   Clear
6:55 PM 37.4 °F - 12.2 °F 36% 30.20 in 10.0 mi Calm Calm - N/A   Clear
7:15 PM 37.4 °F 33.8 °F 12.2 °F 36% 30.19 in 10.0 mi East 4.6 mph - N/A   Clear
7:35 PM 35.6 °F 30.7 °F 14.0 °F 41% 30.19 in 10.0 mi East 5.8 mph - N/A   Clear
7:55 PM 35.6 °F 31.7 °F 15.8 °F 44% 30.19 in 10.0 mi SE 4.6 mph - N/A   Clear
8:15 PM 35.6 °F 30.7 °F 17.6 °F 48% 30.18 in 10.0 mi SE 5.8 mph - N/A   Clear
8:35 PM 33.8 °F 28.6 °F 19.4 °F 56% 30.18 in 10.0 mi SSE 5.8 mph - N/A   Clear
8:55 PM 33.8 °F 28.6 °F 19.4 °F 56% 30.18 in 10.0 mi SSE 5.8 mph - N/A   Clear
9:15 PM 30.2 °F 26.7 °F 19.4 °F 64% 30.17 in 10.0 mi SSE 3.5 mph - N/A   Clear
9:35 PM 33.8 °F 27.7 °F 17.6 °F 52% 30.17 in 10.0 mi SSE 6.9 mph - N/A   Clear
9:55 PM 32.0 °F 24.8 °F 19.4 °F 60% 30.16 in 10.0 mi SE 8.1 mph - N/A   Clear
10:15 PM 32.0 °F 25.6 °F 19.4 °F 60% 30.16 in 10.0 mi SE 6.9 mph - N/A   Clear
10:35 PM 30.2 °F 23.4 °F 21.2 °F 69% 30.15 in 10.0 mi SSE 6.9 mph - N/A   Clear
10:55 PM 32.0 °F 25.6 °F 19.4 °F 60% 30.14 in 10.0 mi SSE 6.9 mph - N/A   Clear
11:15 PM 32.0 °F 26.4 °F 21.2 °F 64% 30.13 in 10.0 mi SSE 5.8 mph - N/A   Clear
11:35 PM 30.2 °F 22.6 °F 21.2 °F 69% 30.13 in 10.0 mi SE 8.1 mph - N/A   Scattered Clouds
11:55 PM 30.2 °F 22.6 °F 23.0 °F 75% 30.11 in 10.0 mi SE 8.1 mph - N/A   Overcast